Weather reports worldwide

Advertisment
Shoreham Airport, United Kingdom (3876): temperature & dewpoint: 15.01.2020 06:00:00 - 21.01.2020 06:00:00 (GMT)Shoreham Airport, United Kingdom (3876): wind speed & gusts: 15.01.2020 06:00:00 - 21.01.2020 06:00:00 (GMT)Shoreham Airport, United Kingdom (3876): wind direction: 15.01.2020 06:00:00 - 21.01.2020 06:00:00 (GMT)Shoreham Airport, United Kingdom (3876): reduced air pressure: 15.01.2020 06:00:00 - 21.01.2020 06:00:00 (GMT)Shoreham Airport, United Kingdom (3876): visibility: 15.01.2020 06:00:00 - 21.01.2020 06:00:00 (GMT)Shoreham Airport, United Kingdom (3876): precipitation: 15.01.2020 06:00:00 - 21.01.2020 06:00:00 (GMT)
Date & Time tt [°C] td [°C] ff [km/h] ff [kn] fx [km/h] fx [kn] dd ppp [hPa] vv [km] rr [mm]
21.01.2020 06:00:00 -0,5 -1,0 15 8 - - N 1042,4 - -
21.01.2020 05:00:00 -0,5 -1,2 11 6 - - N 1042,4 - 0,0
21.01.2020 04:00:00 -0,1 -0,8 18 10 - - N 1042,7 - 0,0
21.01.2020 03:00:00 0,4 -0,4 15 8 - - N 1043,1 - 0,0
21.01.2020 02:00:00 0,8 0,0 15 8 - - N 1043,6 - 0,0
21.01.2020 01:00:00 0,4 -0,5 13 7 - - N 1044,3 - 0,0
21.01.2020 00:00:00 0,7 -0,4 15 8 - - N 1044,9 - 0,0
20.01.2020 23:00:00 1,4 0,4 13 7 - - N 1045,0 - 0,0
20.01.2020 22:00:00 0,2 -0,7 5 3 - - N 1045,1 - 0,0
20.01.2020 21:00:00 -0,8 -1,5 11 6 - - N 1045,5 - 0,0
20.01.2020 20:00:00 -0,9 -1,8 0 0 - - N 1045,8 10 0,0
20.01.2020 19:00:00 0,4 -0,9 4 2 - - N 1046,0 10 0,0
20.01.2020 18:00:00 0,6 -1,1 2 1 - - NNE 1046,3 10 0,0
20.01.2020 17:00:00 3,3 0,8 2 1 - - N 1046,4 10 0,0
20.01.2020 16:00:00 6,3 -2,6 5 3 - - NNW 1046,7 10 0,0
20.01.2020 15:00:00 7,3 -1,7 8 4 - - W 1047,0 10 0,0
20.01.2020 14:00:00 7,2 1,0 5 3 - - S 1047,6 10 0,0
20.01.2020 13:00:00 7,4 -0,8 5 3 - - SW 1047,9 10 0,0
20.01.2020 12:00:00 5,5 0,7 8 4 - - N 1048,6 10 0,0
20.01.2020 11:00:00 4,4 1,0 9 5 - - NNW 1049,3 10 0,0
20.01.2020 10:00:00 1,8 0,4 11 6 - - N 1049,0 10 0,0
20.01.2020 09:00:00 0,4 -1,2 11 6 - - N 1049,2 10 0,0
20.01.2020 08:00:00 0,5 -1,0 16 9 - - N 1048,9 10 0,0
20.01.2020 07:00:00 0,2 -1,2 16 9 - - N 1048,6 - 0,0
20.01.2020 06:00:00 0,4 -1,2 15 8 - - N 1048,6 - 0,0
20.01.2020 05:00:00 1,0 -0,8 13 7 - - N 1048,5 - 0,0
20.01.2020 04:00:00 0,8 -0,8 15 8 - - N 1048,8 - 0,0
20.01.2020 03:00:00 1,3 -0,1 18 10 - - N 1048,5 - 0,0
20.01.2020 02:00:00 1,7 0,2 5 3 - - N 1048,6 - 0,0
20.01.2020 01:00:00 1,8 0,4 13 7 - - N 1049,2 - 0,0
20.01.2020 00:00:00 1,7 0,3 8 4 - - N 1049,3 - 0,0
19.01.2020 23:00:00 0,6 -0,3 9 5 - - N 1049,3 - 0,0
19.01.2020 22:00:00 1,0 -0,1 15 8 - - N 1049,1 - 0,0
19.01.2020 21:00:00 1,2 -0,3 11 6 - - N 1048,7 - 0,0
19.01.2020 20:00:00 1,6 0,2 15 8 - - NNW 1048,2 - 0,0
19.01.2020 19:00:00 2,4 0,3 9 5 - - NNW 1047,9 10 0,0
19.01.2020 18:00:00 3,0 0,9 13 7 - - NNW 1047,3 10 0,0
19.01.2020 17:00:00 4,3 1,0 5 3 - - NNW 1046,8 10 0,0
19.01.2020 16:00:00 6,1 1,8 15 8 - - N 1046,3 10 0,0
19.01.2020 15:00:00 7,1 2,4 16 9 - - N 1045,2 10 0,0
19.01.2020 14:00:00 7,4 2,5 18 10 - - N 1044,8 10 0,0
19.01.2020 13:00:00 6,5 2,3 18 10 - - NNW 1044,9 10 0,0
19.01.2020 12:00:00 4,9 1,7 15 8 - - N 1044,9 10 0,2
19.01.2020 11:00:00 3,5 1,1 13 7 - - N 1044,7 10 0,0
19.01.2020 10:00:00 1,8 0,4 8 4 - - N 1044,4 10 0,0
19.01.2020 09:00:00 0,2 -0,7 9 5 - - NNW 1043,6 10 0,0
19.01.2020 08:00:00 -0,1 -1,0 4 2 - - NW 1042,5 - 0,0
19.01.2020 07:00:00 0,4 -0,4 4 2 - - N 1041,5 - 0,0
19.01.2020 06:00:00 0,6 -0,5 8 4 - - NW 1040,6 - 0,0
19.01.2020 05:00:00 0,5 -0,6 5 3 - - N 1039,6 - 0,0
19.01.2020 04:00:00 0,6 -0,3 5 3 - - SW 1039,1 - 0,0
19.01.2020 03:00:00 1,0 0,0 5 3 - - NW 1038,7 - 0,0
19.01.2020 02:00:00 0,1 -0,9 2 1 - - WSW 1037,6 - 0,0
19.01.2020 01:00:00 0,6 -0,7 4 2 - - NNW 1036,9 - 0,0
19.01.2020 00:00:00 1,0 -0,3 5 3 - - NNW 1035,8 - 0,0
18.01.2020 23:00:00 1,2 -0,2 11 6 - - NNW 1035,1 - 0,0
18.01.2020 22:00:00 1,5 0,0 9 5 - - NNW 1034,3 - 0,0
18.01.2020 21:00:00 2,1 0,1 8 4 - - NNW 1033,7 - 0,0
18.01.2020 20:00:00 2,1 -0,1 9 5 - - N 1033,0 10 0,0
18.01.2020 19:00:00 3,1 0,5 8 4 - - N 1032,2 10 0,0
18.01.2020 18:00:00 2,2 -0,1 8 4 - - N 1031,7 10 0,0
18.01.2020 17:00:00 3,0 -1,0 4 2 - - NNW 1030,7 10 0,0
18.01.2020 16:00:00 5,2 0,5 8 4 - - NNW 1030,0 10 0,0
18.01.2020 15:00:00 6,7 0,9 11 6 - - NNW 1029,4 10 0,0
18.01.2020 14:00:00 7,2 1,9 11 6 - - N 1028,8 10 0,0
18.01.2020 13:00:00 6,7 2,5 11 6 - - N 1028,5 10 0,0
18.01.2020 12:00:00 5,9 2,9 13 7 - - N 1028,4 10 0,0
18.01.2020 11:00:00 5,1 2,7 13 7 - - NNW 1028,1 10 0,0
18.01.2020 10:00:00 3,1 1,9 8 4 - - WNW 1027,5 10 0,0
18.01.2020 09:00:00 1,8 0,6 2 1 - - N 1026,9 10 0,0
18.01.2020 08:00:00 1,0 -0,2 9 5 - - NNW 1026,3 - 0,0
18.01.2020 07:00:00 1,3 0,2 9 5 - - NNW 1025,6 - 0,0
18.01.2020 06:00:00 1,7 0,6 8 4 - - NNW 1024,9 - 0,0
18.01.2020 05:00:00 1,7 0,8 8 4 - - NNW 1024,0 - 0,0
18.01.2020 04:00:00 0,2 -0,6 5 3 - - NNW 1023,5 - 0,0
18.01.2020 03:00:00 1,4 0,8 2 1 - - NNE 1023,4 - 0,0
18.01.2020 02:00:00 1,4 0,6 13 7 - - W 1022,6 - 0,0
18.01.2020 01:00:00 2,2 1,0 15 8 - - WSW 1021,9 - 0,0
18.01.2020 00:00:00 3,2 1,4 15 8 - - W 1021,1 - 0,0
17.01.2020 23:00:00 3,1 1,2 11 6 - - W 1020,2 - 0,0
17.01.2020 22:00:00 1,6 1,1 2 1 - - WNW 1019,6 - 0,2
17.01.2020 21:00:00 1,6 1,0 5 3 - - WNW 1019,1 - 0,0
17.01.2020 20:00:00 2,7 1,6 5 3 - - W 1018,8 10 0,0
17.01.2020 19:00:00 3,5 1,7 9 5 - - WSW 1018,6 10 0,0
17.01.2020 18:00:00 4,1 2,8 0 0 - - N 1018,2 10 0,2
17.01.2020 17:00:00 4,5 2,3 9 5 - - WSW 1017,9 10 0,0
17.01.2020 16:00:00 6,6 3,2 18 10 46 25 WSW 1016,8 10 0,0
17.01.2020 15:00:00 8,4 3,4 16 9 46 25 W 1015,7 10 0,0
17.01.2020 14:00:00 8,1 3,3 29 16 46 25 W 1014,8 10 0,0
17.01.2020 13:00:00 8,6 3,8 35 19 57 31 W 1014,1 10 0,0
17.01.2020 12:00:00 8,9 4,1 31 17 57 31 W 1013,1 10 0,0
17.01.2020 11:00:00 9,1 4,9 37 20 55 30 WSW 1011,9 10 0,0
17.01.2020 10:00:00 9,1 6,6 31 17 55 30 SW 1010,9 - 0,0
17.01.2020 09:00:00 9,4 6,6 34 18 48 26 SW 1010,3 - 0,0
17.01.2020 08:00:00 9,2 7,6 26 14 - - SSW 1010,1 - 0,0
17.01.2020 07:00:00 8,3 7,0 18 10 52 28 SSW 1009,8 - 0,8
17.01.2020 06:00:00 9,3 7,4 22 12 - - WSW 1010,0 - 0,0
17.01.2020 05:00:00 9,9 9,4 22 12 - - S 1009,4 - 0,0
17.01.2020 04:00:00 10,1 9,4 26 14 - - SSW 1009,7 - 0,0
17.01.2020 03:00:00 10,2 9,6 28 15 - - SSW 1010,0 - 0,0
17.01.2020 02:00:00 10,2 9,6 22 12 - - S 1010,4 - 0,2
17.01.2020 01:00:00 10,3 9,7 22 12 - - S 1010,5 - 0,0
17.01.2020 00:00:00 10,1 9,5 18 10 - - S 1010,6 - 1,2
16.01.2020 23:00:00 10,4 9,5 24 13 - - S 1011,2 - 1,2
16.01.2020 22:00:00 10,5 9,4 29 16 50 27 S 1011,1 - 0,8
16.01.2020 21:00:00 11,2 9,3 35 19 48 26 S 1011,2 - 0,6
16.01.2020 20:00:00 11,3 9,0 28 15 46 25 S 1011,1 9 0,4
16.01.2020 19:00:00 11,6 8,8 31 17 - - SSE 1011,1 10 0,0
16.01.2020 18:00:00 11,4 8,7 29 16 - - SSE 1011,6 10 0,0
16.01.2020 17:00:00 11,3 8,5 28 15 - - SSE 1011,6 10 0,0
16.01.2020 16:00:00 11,1 8,5 31 17 50 27 SSE 1012,0 10 0,0
16.01.2020 15:00:00 11,2 8,0 34 18 48 26 SSE 1012,3 10 0,0
16.01.2020 14:00:00 10,9 7,8 35 19 54 29 S 1012,6 - 0,0
16.01.2020 13:00:00 10,4 7,9 29 16 48 26 SSE 1013,9 10 0,0
16.01.2020 12:00:00 10,0 8,0 28 15 - - SSE 1015,7 10 0,0
16.01.2020 11:00:00 9,6 8,0 28 15 - - SE 1016,8 10 0,0
16.01.2020 10:00:00 9,2 7,5 28 15 46 25 SSE 1017,5 - 0,0
16.01.2020 09:00:00 8,8 7,1 34 18 46 25 SSE 1018,1 - 0,0
16.01.2020 08:00:00 9,0 7,4 29 16 - - SSE 1018,2 - 0,0
16.01.2020 07:00:00 8,8 7,3 26 14 - - SSE 1018,5 - 0,0
16.01.2020 06:00:00 8,8 6,2 21 11 - - SSE 1019,3 - 0,0
16.01.2020 05:00:00 8,9 6,5 21 11 - - S 1020,0 - 0,0
16.01.2020 04:00:00 8,8 6,5 21 11 - - S 1020,3 - 0,0
16.01.2020 03:00:00 8,6 6,5 22 12 - - S 1020,6 - 0,0
16.01.2020 02:00:00 8,8 6,8 21 11 - - S 1020,3 - 0,0
16.01.2020 01:00:00 9,1 6,7 26 14 - - SSW 1020,0 - 0,0
16.01.2020 00:00:00 9,0 6,8 28 15 - - SSW 1019,6 - 0,0
15.01.2020 23:00:00 9,1 7,3 22 12 - - SSW 1019,4 - 0,0
15.01.2020 22:00:00 8,8 6,6 21 11 - - SSW 1018,9 - 0,0
15.01.2020 21:00:00 8,3 6,1 16 9 - - SW 1018,3 - 0,0
15.01.2020 20:00:00 7,9 6,1 13 7 - - SW 1017,6 10 0,0
15.01.2020 19:00:00 8,2 4,9 18 10 - - WSW 1016,6 10 0,2
15.01.2020 18:00:00 8,5 4,7 22 12 - - SW 1015,6 10 0,0
15.01.2020 17:00:00 8,6 5,4 18 10 - - SW 1014,3 10 0,0
15.01.2020 16:00:00 9,4 6,8 24 13 - - SW 1012,6 10 0,0
15.01.2020 15:00:00 9,3 7,0 26 14 52 28 SW 1011,2 10 0,0
15.01.2020 14:00:00 9,0 6,7 28 15 - - SSW 1010,1 10 0,0
15.01.2020 13:00:00 9,2 6,7 16 9 - - SW 1009,1 10 0,0
15.01.2020 12:00:00 7,4 6,4 11 6 - - SW 1008,2 10 0,2
15.01.2020 11:00:00 6,8 5,7 5 3 - - SSW 1006,9 9 0,8
15.01.2020 10:00:00 6,5 5,4 11 6 - - WNW 1006,0 - 2,0
15.01.2020 09:00:00 7,0 5,7 21 11 - - NW 1004,5 5 1,4
15.01.2020 08:00:00 8,1 7,3 15 8 - - WNW 1003,0 - 1,2
15.01.2020 07:00:00 9,1 8,1 13 7 55 30 WSW 1002,0 - 0,6
15.01.2020 06:00:00 11,0 9,4 42 23 63 34 SSW 1000,7 - 0,0

tt = temperature
td = dewpoint
ff = wind speed
fx = gusts
dd = wind direction
ppp = reduced air pressure
vv = visibility
rr = precipitation

Next stations